This is the latest recevied weather packets stored in our database for station/object G6LTT-13. If no packets are shown the sender has not sent any weather packets the latest 10 day(s).
| Time | Temp. | Humidity | Pressure | Rain* | Wind** | Luminosity | Snow |
|---|---|---|---|---|---|---|---|
| 1777791880 | 13.33° C | 81% | 1037.9 hPa | 0 mm | - | - | - |
| 1777790080 | 12.22° C | 84% | 1037.7 hPa | 0 mm | - | - | - |
| 1777788280 | 12.22° C | 85% | 1037.9 hPa | 0 mm | - | - | - |
| 1777786480 | 12.22° C | 86% | 1037.6 hPa | 0 mm | - | - | - |
| 1777784680 | 12.22° C | 85% | 1037.5 hPa | 0 mm | - | - | - |
| 1777782880 | 12.22° C | 85% | 1037.4 hPa | 0 mm | - | - | - |
| 1777781080 | 12.22° C | 86% | 1037.5 hPa | 0 mm | - | - | - |
| 1777779280 | 12.22° C | 85% | 1037.5 hPa | 0 mm | - | - | - |
| 1777777480 | 12.22° C | 85% | 1037.8 hPa | 0 mm | - | - | - |
| 1777775680 | 12.78° C | 85% | 1037.7 hPa | 0 mm | - | - | - |
| 1777773880 | 12.78° C | 86% | 1038 hPa | 0 mm | - | - | - |
| 1777772080 | 13.33° C | 87% | 1038.1 hPa | 0 mm | - | - | - |
| 1777770280 | 13.33° C | 86% | 1038.5 hPa | 0 mm | - | - | - |
| 1777768480 | 13.33° C | 87% | 1038.5 hPa | 0 mm | - | - | - |
| 1777766680 | 13.33° C | 86% | 1038.5 hPa | 0 mm | - | - | - |
| 1777764880 | 13.89° C | 85% | 1038.8 hPa | 0 mm | - | - | - |
| 1777763080 | 13.89° C | 84% | 1039.1 hPa | 0 mm | - | - | - |
| 1777761280 | 14.44° C | 83% | 1039 hPa | 0 mm | - | - | - |
| 1777759480 | 14.44° C | 82% | 1039.1 hPa | 0 mm | - | - | - |
| 1777757680 | 14.44° C | 82% | 1039.3 hPa | 0 mm | - | - | - |
| 1777755880 | 15.56° C | 80% | 1039.4 hPa | 0 mm | - | - | - |
| 1777754080 | 15.56° C | 79% | 1039.6 hPa | 0 mm | - | - | - |
| 1777752280 | 15.56° C | 79% | 1040 hPa | 0 mm | - | - | - |
| 1777750480 | 15.56° C | 79% | 1039.9 hPa | 0 mm | - | - | - |
| 1777748680 | 15.56° C | 82% | 1039.8 hPa | 0 mm | - | - | - |
* Rain latest hour (hover to see other rain measurements)
** Current wind speed in m/s (hover to see current wind gust speed)